Printer-friendly version

IAU Minor Planet Center

Minor Planet Center

MPEC 2006-W106: 2006 WF129

The following Minor Planet Electronic Circular may be linked-to from your own Web pages, but must not otherwise be redistributed electronically.


Read MPEC 2006-W105 Read MPEC 2006-W107


M.P.E.C. 2006-W106                               Issued 2006 Nov. 28, 12:56 UT

     The Minor Planet Electronic Circulars contain information on unusual
         minor planets and routine data on comets.  They are published
   on behalf of Commission 20 of the International Astronomical Union by the
          Minor Planet Center, Smithsonian Astrophysical Observatory,
                          Cambridge, MA 02138, U.S.A.

             Prepared using the Tamkin Foundation Computer Network

                              MPC@CFA.HARVARD.EDU
          URL http://cfa-www.harvard.edu/iau/mpc.html  ISSN 1523-6714

                                  2006 WF129

Observations:
     K06WC9F* C2006 11 27.36710 08 25 00.98 +20 19 05.7          20.6 V EW106G96
     K06WC9F  C2006 11 27.37354 08 25 00.80 +20 18 54.0          20.5 V EW106G96
     K06WC9F  C2006 11 27.37979 08 25 00.58 +20 18 42.2          20.6 V EW106G96
     K06WC9F  C2006 11 27.38591 08 25 00.37 +20 18 31.5          20.7 V EW106G96
     K06WC9F  C2006 11 27.41248 08 24 59.43 +20 17 43.4          20.5 V EW106G96
     K06WC9F  C2006 11 27.41881 08 24 59.22 +20 17 32.2          20.3 V EW106G96
     K06WC9F  C2006 11 27.42502 08 24 58.96 +20 17 20.9          20.4 V EW106G96
     K06WC9F  C2006 11 27.43140 08 24 58.75 +20 17 09.4          20.3 V EW106G96
     K06WC9F  C2006 11 28.41509 08 24 26.75 +19 47 24.4          21.1 R EW106651
     K06WC9F  C2006 11 28.41692 08 24 26.70 +19 47 21.9          21.1 R EW106651
     K06WC9F  C2006 11 28.41876 08 24 26.68 +19 47 18.4          21.3 R EW106651
     K06WC9F  C2006 11 28.44936 08 24 25.41 +19 46 23.0          20.6 V EW106G96
     K06WC9F  C2006 11 28.45513 08 24 25.16 +19 46 12.3          20.8 V EW106G96
     K06WC9F  C2006 11 28.46089 08 24 24.94 +19 46 02.1          20.9 V EW106G96
     K06WC9F  C2006 11 28.46667 08 24 24.73 +19 45 51.4          20.8 V EW106G96

Observer details:
651 Grasslands Observatory, Tucson.  Observer J. E. McGaha.  0.62-m f/5.1
    Newtonian reflector + CCD.
G96 Mt. Lemmon Survey.  Observer R. E. Hill.  Measurers E. C. Beshore,
    E. J. Christensen, G. J. Garradd, A. R. Gibbs, A. D. Grauer, R. E. Hill,
    R. A. Kowalski, S. M. Larson, R. H. McNaught.  1.5-m reflector + CCD.

Orbital elements:
2006 WF129                                               Earth MOID = 0.3166 AU
Epoch 2006 Sept. 22.0 TT = JDT 2454000.5                MPC
M 359.51573              (2000.0)            P               Q
n   0.22753820     Peri.  125.10820     +0.79014221     -0.51297027
a   2.6572546      Node   268.00661     +0.39352291     +0.84418842
e   0.5471475      Incl.   19.61317     +0.46990957     +0.15558734
P   4.33           H   19.6           G   0.15           U   9
Residuals in seconds of arc
061127 G96  0.5-  0.1+    061127 G96  0.4+  0.1-    061128 651  0.7+  0.0
061127 G96  0.1+  0.0     061127 G96  0.2-  0.1-    061128 G96  0.0   0.0
061127 G96  0.1+  0.5-    061127 G96  0.1+  0.1-    061128 G96  0.3-  0.3-
061127 G96  0.1+  0.2-    061128 651  0.3-  0.6-    061128 G96  0.1-  0.0
061127 G96  0.1+  0.3-    061128 651  0.0   0.2+    061128 G96  0.2+  0.3-

Ephemeris:
2006 WF129               a,e,i = 2.66, 0.55, 20                  q = 1.2033
Date    TT    R. A. (2000) Decl.     Delta      r     Elong.  Phase     V
2006 11 21    08 26.91   +23 33.9    0.620    1.371   115.0    40.8    20.9
2006 12 01    08 22.75   +18 29.9    0.609    1.426   125.0    34.5    20.7
2006 12 11    08 12.55   +13 41.8    0.609    1.485   136.1    27.4    20.6
2006 12 21    07 57.72   +09 24.9    0.625    1.548   147.5    20.0    20.5
2006 12 31    07 40.64   +05 56.6    0.660    1.613   157.4    13.6    20.5
2007 01 10    07 24.17   +03 27.2    0.718    1.680   161.4    10.8    20.7
2007 01 20    07 10.57   +01 56.4    0.799    1.748   157.2    12.6    21.1
2007 01 30    07 01.20   +01 13.9    0.900    1.816   148.9    16.3    21.5
2007 02 09    06 56.34   +01 05.3    1.020    1.885   140.0    19.7    22.0

Timothy B. Spahr             (C) Copyright 2006 MPC           M.P.E.C. 2006-W106

Read MPEC 2006-W105 Read MPEC 2006-W107


Our Web policy. Index to the CBAT/MPC/ICQ pages.


Valid HTML 4.01!